GFSNW_prec_cthk_000.txt.gz
RH
32 35 35 36 37 36 40 49 59 40 42 54 52 52 45 42 44 44 44 46 45 47 49 50 49 49 48 45 44 51 54 54 58 49 47 49 50 55 59 79 75 73 75 60
32 33 33 33 35 38 40 48 49 43 47 66 55 48 48 49 49 49 49 50 48 48 51 53 53 53 54 52 51 57 55 59 59 50 55 57 57 52 54 61 76 80 92 63
33 34 34 32 31 33 37 44 51 43 49 51 52 52 53 53 51 51 50 50 51 54 56 58 58 59 59 57 58 60 58 59 66 71 64 65 64 54 51 56 66 65 69 58
35 35 36 35 32 31 34 39 42 40 49 46 50 51 52 56 59 54 52 56 56 56 62 58 56 60 61 62 63 65 67 69 67 64 62 67 67 58 55 53 54 61 52 59
38 37 37 37 35 34 37 45 42 39 40 39 45 41 45 47 51 50 56 53 55 55 57 58 59 58 60 58 59 62 67 71 71 70 60 66 65 56 52 53 56 56 56 55
41 41 40 39 38 36 42 38 36 41 41 41 43 46 44 46 44 47 45 48 51 54 53 53 52 52 52 52 55 56 63 77 82 80 68 73 74 60 59 65 65 64 64 55
43 43 42 40 40 39 40 40 42 42 46 45 43 44 42 47 49 50 50 50 57 52 53 51 49 47 46 46 48 55 65 78 84 89 87 85 64 56 57 62 65 65 63 57
45 44 42 42 40 39 40 41 42 47 49 48 54 54 48 46 51 52 49 50 55 53 55 60 61 53 60 54 53 53 59 75 85 90 82 70 71 57 69 69 65 66 72 77
47 47 45 43 42 41 42 46 44 50 50 51 52 57 56 61 62 66 60 55 54 55 58 64 69 62 56 57 54 58 66 75 86 84 88 81 60 58 64 69 71 82 85 86
48 49 50 49 49 49 48 48 50 55 58 53 60 62 65 61 66 67 67 66 61 60 71 78 78 72 63 71 81 79 84 87 90 84 87 71 60 68 75 88 94 89 90 95
53 52 54 56 56 55 56 56 59 63 69 61 66 67 66 66 67 64 64 72 68 74 79 82 80 85 79 76 71 78 83 90 94 90 94 83 74 79 92 86 87 91 85 87
58 54 56 61 59 62 62 63 66 71 74 75 73 72 66 69 64 69 72 75 76 82 87 88 91 91 90 85 83 72 85 81 78 75 78 61 67 79 80 88 88 86 93 88
66 62 63 67 69 72 75 75 77 83 85 81 79 69 68 70 72 76 80 80 84 85 86 90 94 92 89 89 86 86 89 77 77 76 62 63 70 74 82 83 90 95 93 88
76 74 75 80 84 82 85 87 88 93 93 90 81 80 79 80 82 84 86 88 89 88 90 93 92 93 90 84 81 85 88 83 80 71 63 69 67 79 87 91 91 92 89 81
92 91 91 90 89 91 95 96 95 97 98 93 86 82 78 81 87 88 92 90 89 91 95 94 91 91 95 81 83 82 85 82 88 75 71 85 68 68 81 86 95 90 81 76
97 96 97 96 96 98 98 94 88 93 97 98 89 84 83 81 87 87 89 88 89 91 94 93 90 89 97 89 73 75 75 82 82 80 71 67 75 81 82 87 83 82 79 80
86 91 95 95 98 99 98 90 87 90 96 99 96 91 79 80 84 89 89 89 88 91 90 87 91 91 97 94 82 58 76 78 71 70 81 84 82 84 80 77 77 78 80 75
51 63 78 85 90 93 95 97 98 96 99 96 94 85 82 86 89 90 93 92 91 93 92 87 93 88 92 90 67 69 65 67 73 81 86 88 83 78 78 78 80 78 77 70
48 52 57 65 73 84 87 86 89 93 95 91 84 85 85 87 91 91 92 95 96 97 93 88 96 83 81 71 69 72 75 74 76 77 75 78 75 73 73 72 68 69 71 69
58 58 65 68 67 67 65 68 75 76 78 80 84 84 88 87 90 93 91 92 93 94 76 83 88 75 65 68 69 68 70 67 71 70 74 75 76 73 74 73 69 68 64 61
59 61 61 61 63 68 72 77 81 85 86 82 79 82 86 87 92 95 97 97 98 94 69 78 73 63 55 60 62 68 72 71 72 73 71 77 79 78 74 67 63 60 50 49
64 66 65 62 63 66 71 73 73 76 84 86 83 87 93 95 94 94 94 91 86 77 68 72 63 51 52 57 63 70 72 71 68 68 69 66 61 58 54 47 43 45 50 60
63 64 68 69 71 76 73 70 71 70 68 73 75 76 73 72 71 74 74 74 68 71 71 62 53 64 67 74 65 57 56 57 53 49 44 36 35 36 42 46 52 59 63 77
60 55 56 58 59 57 60 65 71 72 71 70 71 74 73 68 66 68 71 67 71 74 65 51 50 57 63 64 66 71 70 59 44 34 29 29 33 38 43 52 66 77 82 89
54 51 51 49 50 58 61 62 62 66 67 69 67 61 60 62 64 65 66 66 64 54 45 50 63 70 70 66 64 56 44 38 35 32 34 37 40 42 45 60 81 87 94 91
59 55 52 54 55 56 56 59 63 65 66 61 56 60 61 59 59 60 59 56 42 37 52 57 60 57 57 53 50 48 46 41 34 33 39 40 41 47 55 72 88 95 95 94
57 57 56 60 56 57 56 59 61 64 61 59 57 63 61 55 59 50 44 47 49 50 49 47 46 50 53 54 53 51 49 42 39 39 41 44 48 55 68 84 94 97 95 91

GFSNW_prec_cthk_006.txt.gz
RH
32 32 35 37 40 45 48 48 42 38 42 46 48 44 41 40 40 39 42 45 47 49 47 49 50 51 51 50 51 52 52 55 61 54 55 55 55 58 65 81 80 81 89 66
32 31 33 36 37 42 42 41 41 42 46 46 49 43 44 43 45 47 48 47 45 46 49 53 54 54 54 54 53 52 51 54 58 50 54 53 52 48 58 67 74 77 84 68
33 32 31 32 34 37 39 41 43 41 44 44 42 41 43 43 43 45 46 47 50 53 56 55 55 55 54 52 48 46 46 48 51 58 55 61 56 46 52 63 76 73 65 66
32 32 32 31 30 31 35 38 38 43 49 45 44 45 45 44 45 41 41 45 46 45 47 47 49 49 50 46 43 46 49 54 55 54 56 60 55 56 59 64 59 74 61 61
34 33 33 32 30 29 31 32 34 36 41 42 42 44 43 41 42 43 43 45 45 44 45 45 47 46 48 49 44 45 49 57 61 55 58 66 60 59 60 60 59 59 60 59
36 36 35 34 33 32 32 32 32 30 35 38 39 40 37 39 40 43 44 45 44 46 44 47 50 46 41 39 41 45 54 61 70 63 69 74 66 56 54 54 52 57 64 63
38 38 37 37 36 36 35 33 32 29 36 35 36 38 37 39 39 43 44 44 48 48 48 51 51 49 44 42 42 47 54 65 75 81 81 87 52 51 51 55 56 56 63 68
40 40 40 40 40 39 39 35 34 32 37 37 35 36 38 40 40 43 48 45 48 52 57 62 57 54 48 48 52 57 64 76 82 82 86 71 58 55 57 62 63 63 67 66
45 43 42 42 43 42 41 39 38 37 35 37 34 35 36 40 42 42 46 49 51 57 67 69 71 66 63 60 56 63 71 76 78 83 88 80 58 58 60 68 70 68 69 68
49 46 45 45 45 45 44 43 41 40 38 36 35 35 39 41 44 47 50 54 58 63 72 78 76 73 68 74 72 72 80 83 82 85 85 75 59 61 72 79 70 74 72 73
49 48 47 46 46 46 44 42 41 39 39 39 38 39 42 48 52 58 60 64 65 75 79 81 79 79 79 80 75 75 77 85 87 86 90 85 71 79 87 83 79 79 69 73
44 45 46 45 44 46 45 43 43 44 44 40 39 41 44 53 56 57 66 74 75 79 82 84 86 89 90 88 86 77 85 82 82 79 75 70 77 78 77 83 80 73 78 85
46 47 51 53 50 53 58 58 53 57 62 60 57 47 49 54 57 62 74 77 80 80 83 89 93 93 88 91 88 91 88 84 80 87 65 72 78 73 74 77 78 80 81 80
55 54 54 58 61 68 74 74 70 75 82 80 66 65 59 62 68 73 79 79 82 86 88 91 96 97 95 91 90 91 91 89 91 85 79 76 77 76 77 83 84 78 82 91
70 67 61 61 63 70 75 74 76 80 84 83 78 69 69 71 74 79 81 84 88 89 90 92 90 90 94 88 88 87 86 81 89 77 82 83 67 78 80 77 77 90 92 96
81 80 79 79 78 81 85 81 80 85 88 88 86 76 70 77 80 85 80 80 84 87 87 85 81 84 92 88 83 75 72 78 81 84 82 82 79 82 81 77 86 82 74 73
90 85 85 86 86 83 85 87 84 84 91 92 88 84 80 77 79 80 82 84 84 87 88 83 82 80 92 91 79 54 69 73 77 85 85 80 83 78 74 80 80 73 68 69
89 95 96 94 93 93 92 92 96 96 98 98 92 86 86 83 83 87 86 85 86 85 84 79 75 76 82 83 58 62 63 68 76 78 72 70 71 73 72 68 67 69 65 69
76 89 96 99 97 96 94 98 98 98 99 97 87 85 87 87 90 93 95 86 73 70 71 71 77 75 77 68 72 64 62 63 62 61 64 67 68 72 66 63 62 71 63 57
64 63 63 76 88 88 94 97 98 99 96 91 86 85 86 87 89 89 81 83 89 88 80 84 80 67 62 61 51 46 44 47 53 66 79 76 70 65 60 59 62 59 55 50
70 72 76 77 77 77 82 84 84 81 76 72 69 73 78 68 71 83 90 90 84 81 75 79 74 67 58 49 43 41 48 65 74 70 70 63 63 54 51 52 50 45 41 41
72 76 83 85 77 83 85 87 82 78 77 75 71 73 79 80 79 79 79 79 79 77 74 81 75 67 54 49 52 61 60 62 68 61 60 69 69 63 58 53 43 40 43 42
68 75 80 85 92 94 87 81 83 83 78 72 70 74 80 82 84 86 84 83 78 76 77 72 64 53 57 62 63 63 62 63 68 73 74 69 62 56 51 44 46 46 42 43
69 70 74 73 77 77 78 81 83 84 84 82 81 80 77 76 77 77 75 72 74 75 72 64 56 56 58 60 60 57 56 61 64 63 59 57 51 41 40 43 46 50 45 43
66 67 70 73 72 71 70 72 75 76 77 74 77 79 79 76 75 70 70 71 74 66 62 62 60 61 59 57 55 57 58 52 45 41 44 45 44 42 43 45 43 49 53 52
66 63 61 63 64 65 68 68 69 68 66 65 67 66 69 67 67 66 65 69 61 55 59 60 62 61 59 53 51 52 47 40 43 46 47 46 48 50 50 47 50 62 67 65
61 59 58 57 55 54 52 51 54 58 60 61 63 64 63 57 60 60 57 55 49 54 54 54 57 56 52 49 44 40 44 47 48 49 47 47 45 47 51 60 68 77 76 80

GFSNW_prec_cthk_009.txt.gz
RH
30 32 34 36 38 41 42 38 33 35 39 40 42 42 39 39 40 39 41 43 44 47 47 49 47 49 50 51 50 49 49 51 53 46 45 46 50 57 58 72 71 72 76 59
31 30 33 35 41 44 42 43 39 40 42 48 48 42 42 42 43 45 45 46 46 48 50 52 51 52 51 51 51 47 46 49 53 46 50 47 49 50 55 62 70 74 79 63
31 31 31 33 35 39 40 41 44 42 43 43 42 40 40 41 40 42 43 46 46 47 50 49 48 49 48 47 45 43 43 48 48 57 48 49 49 53 56 64 75 74 67 60
30 31 32 30 30 36 39 38 41 44 47 43 41 41 40 40 39 38 39 42 41 39 41 40 44 44 44 44 44 44 46 50 48 50 55 56 52 55 55 63 61 72 58 58
31 32 32 32 30 30 32 36 38 39 43 42 40 42 39 40 40 39 40 42 44 44 45 43 48 48 49 49 44 47 50 52 52 50 54 57 58 56 62 58 58 61 59 56
33 33 33 34 32 31 30 29 31 32 40 38 40 42 37 38 38 38 37 41 42 41 42 44 46 48 49 50 51 54 58 62 71 64 67 71 59 58 58 58 56 57 63 57
36 36 35 35 34 34 31 30 29 27 34 33 33 33 34 35 34 36 37 38 40 41 42 43 45 47 48 49 50 52 59 68 75 77 78 82 51 54 54 57 57 57 63 63
38 37 37 37 37 37 35 33 31 29 35 35 33 34 34 34 35 37 38 39 39 41 42 47 47 50 47 51 58 62 63 72 78 81 87 74 57 55 57 58 61 61 69 71
41 40 39 39 39 39 38 36 35 33 31 35 33 33 34 39 40 41 40 40 42 46 50 55 61 64 63 62 59 65 74 78 82 85 90 85 61 61 62 68 75 73 76 77
47 45 44 43 42 41 40 39 37 37 35 33 33 33 35 34 35 40 43 45 48 55 61 65 70 76 72 76 71 72 81 84 85 87 87 78 63 63 67 81 78 75 78 80
53 50 50 49 46 45 44 42 41 39 37 36 34 34 34 35 36 43 46 52 51 60 66 71 77 81 78 80 77 79 82 85 85 85 91 83 68 76 81 78 78 78 76 78
56 54 53 53 52 50 48 46 44 41 39 37 34 33 33 35 39 43 47 54 54 64 71 76 82 86 84 86 85 75 88 79 82 82 82 74 77 78 77 80 76 76 78 84
54 53 53 53 52 51 49 48 47 44 42 40 38 46 53 53 55 57 62 63 70 71 76 83 87 90 89 92 91 91 90 81 84 89 80 75 80 78 82 83 80 83 87 84
51 50 49 49 50 50 50 50 50 52 56 58 51 56 58 59 60 62 66 71 76 78 80 85 92 93 91 90 89 92 89 85 95 86 83 76 74 75 82 87 98 93 84 81
51 49 47 48 48 50 51 56 61 64 69 71 66 62 63 65 68 71 73 78 79 83 88 89 90 90 93 89 88 88 83 79 90 84 76 78 72 81 96 94 89 86 76 74
65 61 59 56 57 59 60 62 62 62 65 79 81 74 68 70 73 76 76 77 82 89 87 84 82 82 91 88 82 73 76 75 86 80 74 81 79 92 92 89 79 69 70 65
85 79 70 72 76 77 78 77 72 66 75 87 84 80 74 72 76 80 83 86 87 86 86 83 83 85 95 88 81 65 74 85 79 77 78 80 80 81 69 64 58 55 62 63
98 97 95 94 93 92 89 87 90 88 90 91 90 85 83 81 81 83 87 88 89 87 86 84 82 80 82 82 64 71 78 75 72 68 60 58 63 58 57 60 62 58 59 64
98 99 99 99 98 96 95 96 99 98 97 95 88 87 88 88 88 93 92 90 88 83 84 81 76 77 81 74 77 72 64 58 54 53 57 59 63 64 56 53 54 58 60 57
94 97 99 98 98 98 99 99 98 97 98 95 90 92 94 93 97 97 92 90 94 83 77 82 80 73 73 74 62 54 49 48 53 59 65 63 56 59 60 57 52 53 51 49
66 80 91 97 97 98 98 96 93 93 94 93 92 94 94 88 86 85 90 90 91 92 82 85 80 76 69 67 62 59 57 58 59 57 53 55 56 54 53 53 57 62 60 53
76 72 71 77 79 78 80 83 83 79 78 76 76 81 82 86 91 96 96 92 90 84 80 84 82 80 73 67 67 66 68 65 61 58 58 62 65 67 66 59 54 51 48 48
71 75 81 81 85 85 82 77 79 80 79 78 80 84 87 86 86 89 89 90 87 87 87 83 73 67 65 62 59 59 57 57 56 55 58 56 54 56 56 52 47 48 48 47
69 72 76 73 77 78 78 78 80 83 85 84 84 88 88 88 90 90 84 79 78 79 76 65 64 62 59 54 53 53 51 55 57 55 49 48 46 45 46 50 50 48 48 46
70 69 70 73 69 70 70 72 73 76 78 80 83 81 81 79 78 74 75 80 80 72 67 65 61 59 58 59 58 56 54 49 44 41 42 40 41 43 42 40 40 47 52 60
68 66 64 66 71 75 77 81 84 84 84 81 78 77 75 74 76 74 70 71 63 60 63 59 60 62 61 56 50 48 48 47 42 41 42 42 41 43 44 43 47 55 64 70
65 62 61 62 64 64 62 64 63 65 65 63 65 65 59 59 67 66 62 61 58 57 55 57 57 57 54 51 48 44 44 42 42 44 42 43 45 50 52 56 57 64 67 75

GFSNW_prec_cthk_015.txt.gz
RH
36 36 36 36 33 33 35 27 29 30 28 29 33 33 32 33 35 37 39 41 41 42 45 47 47 48 47 47 45 44 40 40 37 34 41 45 48 50 49 51 53 59 65 48
36 36 39 40 38 39 38 31 32 33 33 37 39 36 36 36 38 40 39 41 42 44 45 48 47 46 43 40 38 39 39 42 40 33 42 45 46 46 48 54 60 59 69 51
34 35 38 42 46 42 39 33 39 35 34 35 37 38 39 41 40 41 41 42 42 42 43 42 44 43 42 43 44 44 43 45 43 43 38 42 45 47 52 58 69 64 60 56
34 34 35 39 44 44 39 38 40 38 41 39 40 40 39 40 40 39 39 41 39 37 41 41 41 40 39 38 40 41 42 48 47 47 46 49 49 52 57 63 64 74 59 59
34 33 31 35 38 42 40 39 43 41 44 42 41 41 38 39 39 37 38 37 38 35 36 34 37 36 35 35 40 43 47 51 52 55 54 54 55 52 57 62 63 66 67 64
33 32 32 32 33 34 36 38 39 40 45 41 41 41 39 39 37 37 35 35 35 34 35 35 35 34 35 37 39 46 51 57 62 57 59 57 55 53 61 61 62 63 65 57
30 32 32 32 32 32 31 31 36 39 46 43 42 39 37 37 35 34 35 33 34 33 34 34 33 32 33 35 43 48 58 65 70 71 67 67 50 58 61 63 59 61 61 62
31 30 32 34 34 32 30 31 30 31 42 42 38 35 35 34 34 35 33 33 32 34 34 35 34 34 30 38 43 49 58 68 76 79 79 70 58 59 62 65 61 61 63 65
35 32 34 35 35 36 34 32 30 27 28 35 32 32 32 34 35 34 36 36 35 35 37 39 40 38 38 41 47 56 64 71 77 84 89 84 65 63 64 66 67 69 74 77
39 38 37 37 37 38 37 35 34 31 29 31 33 32 34 33 35 37 38 39 39 39 44 49 51 54 55 55 58 62 74 80 82 86 90 76 67 69 70 82 79 80 85 83
46 44 41 40 39 39 39 38 38 36 34 35 34 33 33 34 34 38 37 40 40 46 52 60 63 64 61 62 62 69 70 80 84 88 89 82 69 72 78 75 81 86 84 80
54 52 49 45 43 42 41 41 41 40 39 39 39 38 36 36 35 35 38 36 39 48 57 61 65 70 70 70 75 72 75 74 82 83 79 72 75 73 79 82 83 85 91 93
64 62 58 55 52 48 47 44 44 43 43 44 43 41 39 38 37 37 36 41 47 52 56 64 71 73 74 80 82 79 73 77 83 85 75 77 76 77 80 85 87 93 93 87
67 67 64 62 60 57 53 51 50 49 48 48 44 41 38 39 39 38 40 48 53 58 63 70 75 79 78 81 79 81 77 84 87 83 76 76 76 77 87 86 87 88 86 81
66 68 68 67 66 65 62 59 57 55 52 49 43 40 38 36 35 39 43 49 57 61 71 77 80 80 86 87 85 82 88 89 90 83 82 83 82 87 94 95 85 73 68 58
68 69 69 68 67 66 64 62 58 55 54 54 50 43 37 36 40 44 45 51 58 68 75 82 83 85 89 88 86 82 86 89 90 85 82 86 90 94 82 81 73 62 58 52
72 69 69 68 67 66 65 61 57 54 54 52 48 44 41 40 43 48 58 65 72 81 86 87 87 89 91 92 90 86 87 86 80 79 86 87 89 87 72 65 60 57 53 55
83 80 79 79 77 73 65 62 57 53 52 53 58 57 54 55 58 62 69 77 85 89 93 92 91 90 91 89 83 84 82 80 80 83 78 80 78 74 70 65 59 51 47 44
97 93 91 88 86 79 76 72 68 66 70 72 71 70 73 71 72 75 80 87 90 91 92 91 90 89 87 85 84 81 81 83 83 78 76 74 71 67 61 55 49 44 42 46
99 99 98 95 91 90 88 95 97 97 93 87 84 83 85 87 90 94 96 96 96 91 88 88 86 85 83 83 84 79 80 80 78 72 65 60 57 54 48 44 45 48 45 43
99 98 97 96 95 97 99 99 99 97 93 90 88 90 92 94 95 98 98 97 95 90 84 88 84 81 78 74 76 78 75 68 64 62 59 53 49 46 45 44 41 37 34 34
98 98 98 99 99 98 99 98 97 95 95 93 93 96 98 99 98 98 98 98 95 88 86 89 83 78 77 78 72 63 59 59 59 52 46 45 46 45 41 35 32 32 33 33
98 98 98 97 96 98 96 92 91 95 92 91 90 93 94 97 97 96 93 95 94 91 91 85 77 76 72 62 62 58 57 55 50 44 41 42 37 33 32 31 33 35 34 37
97 97 97 95 96 95 92 88 87 89 90 91 92 92 93 95 97 97 97 97 94 93 87 73 70 64 60 60 58 52 49 45 40 38 37 33 31 30 30 33 36 39 39 39
90 89 95 93 92 94 93 92 91 92 93 92 93 92 91 91 93 90 93 93 90 83 71 65 60 57 57 54 50 46 41 38 36 31 30 32 33 33 31 34 38 42 44 45
85 83 84 85 84 86 86 86 87 88 90 91 90 89 91 91 92 90 90 90 82 69 62 57 55 54 47 44 40 37 34 30 31 32 35 35 36 37 37 37 41 43 49 50
86 81 80 78 77 78 79 79 81 84 88 86 83 85 85 86 90 88 80 70 60 56 54 53 47 43 42 39 35 32 31 33 36 35 37 39 40 40 41 41 42 48 51 57

GFSNW_prec_cthk_021.txt.gz
RH
40 38 33 30 25 21 20 24 32 16 16 22 28 30 23 23 23 27 29 32 31 34 34 36 37 37 37 35 31 31 30 31 32 29 32 33 36 42 42 46 43 50 54 43
41 41 37 34 31 26 28 32 35 18 18 34 30 28 28 28 30 31 32 35 35 36 36 38 36 38 36 33 31 37 29 34 34 33 40 43 42 45 45 45 47 45 64 55
41 42 40 37 36 34 31 35 36 26 23 32 27 28 28 32 33 33 36 36 34 35 36 36 37 36 34 31 31 28 30 32 29 33 32 34 39 41 43 48 55 56 54 57
40 42 43 40 39 40 34 38 38 31 32 31 31 31 32 34 34 36 36 36 36 36 38 36 37 35 31 29 28 30 31 35 31 32 30 34 39 43 45 47 51 61 56 60
40 41 45 45 42 39 36 37 37 34 36 34 35 36 35 34 37 37 36 37 36 34 35 29 33 30 29 29 31 34 31 36 37 35 33 36 42 44 45 47 53 57 62 62
40 39 41 47 45 40 41 33 33 36 35 35 38 36 37 38 39 39 36 36 34 35 34 32 31 31 31 30 34 35 34 36 40 44 38 44 59 48 47 51 57 59 63 62
40 38 38 39 43 41 39 38 38 38 39 40 40 37 40 42 41 38 38 38 38 37 31 28 27 28 29 30 32 33 40 42 52 57 56 65 54 50 51 52 54 56 58 60
43 40 37 36 37 37 36 37 40 41 47 43 43 42 43 43 40 40 39 38 34 32 31 32 34 32 32 33 31 33 41 51 58 63 58 49 53 53 55 55 54 56 60 65
43 39 38 36 35 36 37 35 36 41 43 49 45 46 46 46 45 42 40 35 32 32 35 34 41 36 28 32 36 41 46 53 58 67 75 71 57 63 60 60 65 68 72 70
46 41 35 37 37 37 35 35 35 38 44 46 47 48 46 45 41 42 38 37 35 34 39 40 45 35 30 33 45 53 56 60 66 70 74 62 58 64 63 72 79 77 76 77
46 42 40 35 35 37 38 36 33 33 35 37 43 42 41 37 37 40 38 37 38 39 42 44 42 47 39 38 36 46 52 65 70 71 76 79 64 66 79 77 76 84 82 79
47 44 42 40 36 36 38 40 37 34 36 37 34 33 32 32 35 38 36 37 34 35 41 43 46 47 48 48 47 41 47 53 63 68 68 70 73 78 80 81 87 85 84 78
49 47 45 43 41 40 39 41 41 40 39 40 39 39 34 33 32 34 38 38 38 38 42 43 44 48 45 52 49 45 46 57 66 71 66 73 75 82 87 87 86 82 74 72
48 49 49 47 46 44 43 44 43 44 43 44 46 40 40 38 37 36 37 40 37 40 40 42 44 47 47 55 47 47 56 64 72 76 75 78 85 89 90 89 88 82 75 72
51 50 51 52 52 50 49 49 47 45 48 49 48 45 43 43 41 41 41 41 42 43 45 46 47 48 52 55 56 53 58 67 79 84 89 86 87 91 88 90 82 75 70 63
60 58 57 56 57 57 60 63 57 56 52 50 52 51 47 45 44 45 45 47 49 49 49 49 47 50 50 60 63 51 62 76 81 86 90 89 87 87 89 84 75 68 65 55
70 68 68 68 66 66 70 67 65 62 63 61 61 58 53 50 52 50 51 49 50 50 53 53 51 51 63 69 65 63 77 82 84 87 88 84 89 88 83 70 68 59 50 48
81 75 70 71 72 73 72 69 66 68 70 68 68 62 55 52 55 55 53 54 53 54 55 55 58 66 72 73 70 79 83 83 84 84 84 86 84 77 71 63 49 44 45 42
89 88 87 81 73 72 71 74 72 71 71 69 62 61 59 55 54 55 55 56 60 61 64 66 73 75 78 79 82 83 83 83 83 80 79 75 72 66 53 45 45 43 38 31
99 99 98 91 84 83 84 82 79 76 72 69 63 60 63 60 64 65 67 67 69 69 71 81 81 78 81 81 84 85 84 83 81 79 75 69 60 51 47 44 41 37 30 25
99 98 98 94 97 99 98 95 88 83 79 73 68 67 68 69 73 80 83 81 83 87 84 90 84 77 76 81 83 81 79 81 76 71 63 56 52 49 45 41 34 29 26 26
98 98 98 99 99 99 99 98 92 85 83 78 77 79 83 85 88 95 95 98 98 94 85 89 81 73 76 76 76 77 76 73 67 62 56 51 48 44 40 34 29 27 26 27
99 99 99 99 98 98 98 96 91 87 82 81 83 90 94 95 98 99 99 98 98 90 90 84 78 78 75 75 75 77 74 69 61 54 51 48 44 37 31 29 26 28 29 30
98 98 98 98 97 98 97 95 90 87 86 89 93 96 98 98 99 98 98 97 94 95 90 87 82 81 79 80 77 73 66 59 54 49 45 39 33 31 29 29 30 31 30 31
95 98 97 97 97 97 97 98 97 96 96 97 97 97 99 98 98 97 97 97 96 89 87 86 83 83 81 75 73 68 65 58 52 46 39 32 31 30 30 32 32 32 33 34
79 94 97 97 97 97 97 97 97 97 97 97 98 98 98 98 98 97 97 97 91 88 87 84 80 78 76 71 69 62 55 48 43 37 33 32 32 32 32 32 33 34 38 40
68 81 91 97 97 96 94 94 95 94 98 98 97 97 97 97 97 96 92 91 89 87 84 81 77 71 66 61 58 55 49 41 36 35 35 34 34 35 34 32 38 45 46 48

GFSNW_prec_cthk_024.txt.gz
RH
42 35 30 27 21 20 20 22 32 30 17 22 24 34 33 26 19 21 26 30 34 38 33 39 39 38 38 31 30 30 24 28 34 28 27 28 30 36 39 53 48 56 57 43
44 39 33 30 22 20 21 30 50 30 17 31 36 37 31 26 22 23 28 32 35 37 39 41 39 38 35 32 30 36 25 32 38 37 40 38 33 37 39 45 51 52 58 48
46 43 38 33 25 24 29 49 46 27 22 45 31 32 28 28 28 31 32 36 36 36 40 37 37 38 36 30 28 22 28 29 27 32 30 29 30 31 36 43 60 56 56 55
48 47 42 37 32 32 41 52 40 24 24 34 34 29 30 31 31 32 33 37 36 38 39 38 38 37 32 29 23 26 28 31 28 26 25 28 31 33 37 42 46 54 52 57
47 48 47 42 40 39 38 51 49 32 39 24 32 36 33 33 34 35 35 38 40 41 39 36 39 34 30 31 28 32 29 35 32 28 28 30 31 34 38 42 46 50 54 56
45 47 48 46 44 45 46 44 39 37 34 35 39 37 35 37 38 38 41 42 43 43 39 37 35 32 31 30 33 33 34 35 35 40 36 37 55 47 42 47 52 56 61 60
44 44 47 48 45 45 46 40 40 42 39 36 36 37 39 40 40 39 42 43 42 41 37 32 29 26 28 28 30 31 37 35 44 49 48 54 42 39 43 49 52 55 58 61
44 42 41 44 46 43 39 38 41 40 42 37 40 38 41 44 42 46 46 44 40 36 36 35 30 33 29 30 28 30 36 41 50 55 50 39 40 46 47 51 53 58 64 68
46 41 39 38 39 40 38 36 39 41 41 45 42 43 45 46 49 50 50 45 40 37 39 36 37 40 29 36 34 34 37 45 49 55 62 55 45 51 52 52 61 67 70 73
51 45 40 38 37 39 39 37 37 43 48 46 48 52 51 52 52 53 47 43 39 38 40 40 43 35 25 33 40 47 47 51 56 57 58 52 46 51 54 62 75 77 76 78
51 45 40 39 40 38 38 37 37 40 43 46 51 53 57 53 53 59 49 44 42 41 44 42 40 43 40 36 33 43 46 54 57 56 63 64 55 59 72 72 77 84 83 82
54 49 45 42 38 39 40 39 36 35 39 42 45 48 51 49 47 50 44 39 37 36 39 40 41 43 47 46 41 33 46 44 51 52 55 59 69 71 74 80 84 87 86 83
57 52 48 45 44 41 38 41 40 39 38 40 40 41 38 38 40 39 39 39 38 39 42 42 43 46 42 45 42 36 35 37 46 52 51 62 68 74 80 83 87 87 87 79
60 56 52 48 46 44 42 43 41 43 42 44 45 42 39 37 35 37 37 38 38 42 42 44 42 42 39 47 38 44 38 39 42 50 57 67 82 84 87 87 84 80 77 73
59 57 55 52 49 47 46 45 45 46 48 50 48 43 42 40 39 41 40 41 42 44 46 45 45 43 42 48 52 47 35 36 50 61 65 75 83 90 90 86 79 74 70 70
57 55 53 53 52 50 49 55 49 49 50 47 49 49 46 45 46 48 47 49 49 50 51 50 46 44 48 55 52 35 35 44 57 66 75 84 88 88 83 79 76 71 71 64
61 58 55 54 53 53 58 59 60 56 56 55 56 56 52 49 51 53 53 53 53 53 53 54 51 50 54 58 54 36 43 55 66 75 81 86 85 83 80 75 74 71 60 47
70 67 65 63 61 60 61 61 60 63 66 64 65 63 58 58 61 63 62 60 58 59 58 59 57 57 59 61 42 47 57 71 77 83 88 86 83 78 74 70 63 55 45 44
90 82 78 72 71 70 71 71 69 68 71 72 66 66 67 61 63 64 63 63 63 61 60 59 60 61 57 46 51 66 73 79 84 87 84 79 78 74 68 63 52 45 45 40
96 92 86 81 79 81 78 78 75 74 71 68 65 62 64 61 64 65 63 64 68 68 66 72 71 64 58 57 70 81 83 86 88 86 82 80 78 70 62 54 49 47 40 34
98 97 95 91 92 90 90 92 90 83 74 69 67 66 65 67 68 70 70 73 78 79 74 80 76 69 66 75 82 85 89 89 88 85 82 76 69 63 57 52 48 40 35 33
99 99 98 98 98 99 99 97 94 87 82 76 76 79 76 76 84 87 90 88 89 87 84 89 81 74 79 84 83 84 84 83 78 75 74 71 64 58 51 45 38 34 33 30
98 98 99 99 98 98 98 93 87 86 83 81 81 84 87 89 92 97 97 98 98 94 91 87 83 87 87 85 83 82 80 74 75 76 71 64 56 50 42 36 35 35 32 30
93 98 98 98 98 97 97 94 91 90 90 92 93 94 96 97 98 99 98 98 97 97 93 90 94 89 87 86 86 85 80 79 75 69 61 54 47 41 37 37 35 33 32 31
80 90 97 97 97 97 97 97 98 97 97 98 98 97 98 98 99 98 98 97 97 96 97 98 92 90 90 87 84 81 80 75 69 60 53 47 40 38 37 34 33 32 30 31
66 79 86 91 96 97 97 97 98 98 98 98 98 98 98 98 98 98 98 97 97 99 96 92 89 87 86 86 83 79 70 63 57 52 45 40 38 36 34 31 30 31 33 38
56 66 76 83 84 91 96 96 96 96 97 97 96 97 97 97 97 97 96 98 96 92 91 88 87 85 80 74 68 64 59 54 47 42 39 37 34 31 30 30 33 40 45 48

GFSNW_prec_cthk_030.txt.gz
RH
46 41 33 30 31 31 31 31 30 28 26 25 28 32 44 34 29 26 27 29 33 34 36 39 43 42 38 32 31 29 33 36 38 33 28 28 26 29 32 43 39 54 57 55
48 39 31 29 28 29 31 29 37 33 26 26 30 23 36 32 30 26 25 30 32 38 40 47 44 44 43 33 33 32 30 33 42 35 33 30 25 29 33 39 44 44 52 47
47 37 31 28 26 29 30 31 43 37 28 26 24 34 34 34 25 25 23 28 33 37 40 40 43 43 40 31 31 30 31 30 30 34 27 23 22 25 30 34 48 45 49 41
47 39 33 29 25 28 31 35 39 35 27 24 28 34 36 34 29 25 24 26 33 37 40 42 45 42 37 33 26 27 32 32 29 28 26 24 23 25 27 30 34 42 40 44
48 43 38 30 25 27 35 43 40 34 30 27 28 36 33 30 29 28 30 30 33 37 40 38 42 38 35 32 26 28 30 35 29 25 27 27 25 27 30 33 31 36 43 52
50 45 39 30 26 31 49 51 49 30 35 33 35 34 30 31 34 31 31 33 39 41 44 42 42 40 38 35 32 33 33 35 34 30 34 33 33 30 31 31 33 34 41 48
53 48 41 33 30 40 65 61 51 37 35 36 35 34 36 37 36 36 36 36 40 44 47 44 41 39 39 37 35 33 37 40 40 35 34 29 29 28 29 36 39 39 45 51
55 51 44 36 40 55 57 55 50 42 41 37 37 38 42 41 43 41 40 39 41 46 48 49 44 47 39 40 37 36 35 38 42 37 44 30 27 30 31 34 44 46 50 53
66 54 51 42 42 50 51 50 45 40 39 42 40 35 41 44 43 45 43 42 44 45 52 50 48 47 31 39 37 38 39 38 36 48 36 36 31 31 33 35 45 47 50 54
67 67 54 51 48 46 44 40 40 38 38 43 44 42 44 43 42 46 45 44 47 47 51 57 49 47 39 44 43 42 46 47 48 50 49 40 31 34 36 47 42 47 53 59
58 62 66 64 54 49 44 40 39 39 39 44 43 42 42 41 40 44 44 47 47 51 51 52 52 48 43 40 38 40 39 45 48 50 52 47 30 36 38 35 43 51 55 61
54 52 56 57 55 48 42 39 38 35 36 45 47 47 45 44 44 44 47 43 45 46 50 51 51 48 47 42 42 35 36 32 39 39 39 31 33 35 34 39 49 55 59 67
56 51 46 45 48 46 43 40 39 37 37 41 47 51 51 50 47 47 48 50 49 47 41 45 45 41 42 44 43 38 33 35 40 41 34 37 39 42 42 51 56 61 64 71
63 57 51 46 43 40 40 39 38 36 34 38 44 46 48 51 51 49 50 47 46 43 42 45 45 44 39 41 36 40 32 37 38 43 43 45 46 46 48 56 63 66 72 77
70 66 58 50 46 43 39 37 36 36 36 39 42 42 43 42 43 44 44 44 44 45 48 53 53 49 48 49 48 42 35 36 40 41 39 42 42 47 53 63 69 76 77 75
73 70 65 61 55 51 46 44 42 40 39 38 42 44 44 44 44 43 43 44 46 48 48 51 50 48 46 53 53 37 36 38 40 41 43 44 45 52 63 70 73 78 80 83
75 72 68 64 63 61 54 49 49 47 45 43 49 48 47 46 47 48 49 49 50 51 52 52 52 52 55 57 55 44 44 43 43 44 49 58 62 69 72 78 82 84 84 82
74 72 70 66 64 63 62 59 56 54 51 49 53 52 50 53 56 59 60 62 62 61 65 64 64 65 68 64 50 47 47 49 52 58 61 65 74 77 83 93 88 86 82 81
76 71 71 70 67 64 62 59 56 55 55 56 55 53 53 56 62 66 68 70 72 69 70 71 70 68 63 52 51 50 51 54 58 68 75 82 85 92 89 88 87 85 84 76
71 72 71 69 68 67 63 62 58 56 57 57 55 54 58 58 64 68 70 69 70 68 64 65 64 59 54 52 60 68 69 72 77 82 86 89 90 90 91 86 86 85 75 63
69 69 70 69 67 66 66 66 65 65 64 62 62 63 63 67 73 77 77 81 82 76 69 74 71 71 68 65 67 74 78 80 85 89 94 94 95 94 91 89 81 70 62 57
76 75 76 77 76 75 76 78 81 81 81 78 75 72 76 85 83 85 92 94 92 89 86 88 82 76 78 79 81 82 82 85 89 92 95 96 94 87 82 74 65 61 57 54
92 92 97 98 94 95 94 91 86 85 84 85 85 89 91 93 94 98 98 98 96 93 93 90 87 87 87 88 88 87 88 89 88 87 86 84 81 77 69 64 61 58 52 46
98 98 98 98 96 93 92 90 89 90 91 92 92 95 97 96 98 99 99 98 98 96 92 87 91 93 93 88 86 85 83 86 86 82 82 80 74 69 65 62 55 47 43 39
85 93 97 97 95 95 94 95 95 95 95 95 96 96 96 96 98 97 97 97 96 96 93 92 94 93 96 91 92 90 85 83 82 81 78 73 67 62 53 48 44 42 39 36
60 67 76 83 87 92 95 97 97 97 97 98 98 98 98 98 98 98 98 98 97 97 96 96 97 95 95 94 93 88 85 82 82 79 72 63 54 49 46 42 38 36 35 37
57 61 61 62 64 69 73 78 83 86 89 91 94 96 97 97 98 98 98 98 98 97 93 91 91 92 93 92 91 92 90 83 73 63 54 49 45 41 39 36 36 37 40 41

GFSNW_prec_cthk_033.txt.gz
RH
46 38 41 42 41 39 36 34 36 34 31 30 39 45 50 40 35 32 29 31 30 32 34 35 34 35 35 33 30 33 40 40 44 33 30 27 27 28 29 37 33 50 51 42
47 40 42 42 38 38 36 36 39 36 29 30 38 39 43 38 34 32 31 32 30 33 40 44 43 42 42 38 32 32 34 39 45 38 33 28 27 28 33 33 37 39 46 40
47 42 42 41 37 37 37 38 44 39 32 25 27 31 35 37 34 31 28 31 32 38 44 44 48 47 44 37 33 32 34 37 33 34 27 26 23 23 29 31 44 41 40 33
46 44 42 39 36 36 38 39 41 32 32 29 27 25 32 32 31 27 27 29 30 35 44 46 47 44 42 35 32 33 32 33 33 30 28 23 21 22 28 30 30 36 30 35
48 46 41 35 34 35 38 38 42 31 26 21 28 30 34 33 29 28 25 24 31 35 38 38 45 43 39 32 32 32 32 39 32 30 32 30 24 21 26 27 27 31 34 38
52 46 39 33 31 34 37 41 43 33 32 24 29 30 34 31 29 31 28 30 32 36 38 41 40 40 36 33 33 33 31 36 34 29 37 29 27 21 26 26 27 30 41 36
53 44 39 31 29 31 40 45 42 34 37 25 25 27 31 30 32 31 30 30 32 38 40 44 44 43 42 41 39 34 36 40 39 35 34 30 20 24 25 27 32 32 34 37
53 46 40 31 29 35 49 54 53 35 39 32 34 30 32 35 39 39 39 36 36 39 41 46 46 51 44 44 45 43 36 38 45 41 41 27 22 27 29 29 31 34 35 42
55 48 40 33 30 48 58 51 50 42 34 42 40 41 40 42 43 43 42 42 40 43 47 47 47 47 36 42 41 42 40 37 37 48 35 32 21 26 26 30 39 33 38 43
55 50 42 35 42 60 77 64 52 42 44 44 42 43 42 42 44 46 46 45 44 42 49 56 52 51 43 48 44 47 49 47 45 51 43 34 23 28 31 42 32 33 37 44
57 51 43 39 48 62 62 58 47 41 40 47 41 38 36 38 41 46 44 47 47 49 51 51 52 51 49 48 43 43 43 47 49 50 51 41 24 32 36 32 31 33 38 47
74 57 49 44 45 54 53 47 45 42 40 46 49 47 46 44 44 43 44 43 44 45 47 48 50 52 52 49 46 41 41 33 38 37 36 27 29 30 33 36 36 39 43 53
71 73 71 59 55 51 48 46 43 39 42 47 48 47 47 47 45 44 43 44 41 42 41 45 46 43 46 47 46 40 36 34 36 36 30 33 34 35 38 40 43 45 52 59
63 63 64 65 59 51 46 43 39 36 36 40 50 48 51 51 50 48 47 46 47 46 43 44 44 40 38 41 38 41 37 38 39 42 37 40 39 39 41 46 50 51 57 61
59 57 56 56 53 50 46 41 39 37 34 39 44 47 49 50 51 50 49 48 47 45 45 47 46 43 45 47 49 45 38 38 42 41 34 37 37 40 46 50 52 56 64 72
62 57 53 49 46 44 41 40 41 39 37 35 42 43 44 44 44 44 44 44 43 44 45 48 47 45 47 53 53 36 36 38 40 40 42 43 45 48 50 57 66 71 77 83
72 69 62 55 50 47 43 41 42 39 36 35 43 43 43 44 45 45 46 47 47 48 49 50 49 50 53 57 54 42 45 47 47 47 49 50 51 58 66 71 77 83 83 90
76 74 72 69 66 63 60 56 52 48 45 43 48 49 47 50 52 53 53 54 54 55 58 59 58 61 64 63 52 53 52 51 50 50 54 57 63 69 77 85 84 88 94 90
79 78 76 74 71 68 67 66 64 60 54 53 54 53 54 57 59 61 61 62 64 64 66 68 69 68 65 58 55 54 56 55 55 62 68 75 81 83 84 88 95 97 88 88
85 80 77 76 74 73 70 69 63 61 61 59 58 56 57 56 59 61 63 65 69 71 67 68 66 63 62 63 62 62 66 70 71 76 80 82 87 90 94 97 93 87 92 88
81 83 83 80 77 74 72 72 69 69 67 63 61 58 56 57 59 65 68 70 71 70 67 75 74 74 76 75 76 76 76 78 82 85 88 91 93 97 96 94 93 85 75 68
75 71 74 78 77 75 75 74 71 68 67 66 63 70 80 81 79 79 79 80 84 84 80 83 81 79 81 82 84 83 82 84 87 90 91 92 95 92 86 81 77 73 69 66
91 87 82 80 80 79 78 76 72 67 64 69 83 89 90 90 92 95 96 97 94 90 89 87 85 85 88 87 87 88 88 87 88 87 86 84 83 83 82 75 72 68 63 59
95 92 90 87 86 84 84 81 77 79 87 91 91 93 94 96 98 98 98 98 96 94 90 86 88 90 90 84 84 83 83 84 82 81 81 82 80 77 74 71 67 61 56 53
98 98 97 93 91 92 92 95 95 94 94 94 95 95 96 97 98 98 97 97 96 93 91 90 93 93 92 91 94 85 82 83 82 81 79 78 76 71 68 61 55 51 45 42
84 91 94 93 95 96 97 97 97 97 98 98 98 98 98 98 98 96 97 96 93 92 96 95 97 98 96 96 96 89 88 86 84 83 79 73 67 57 49 43 42 42 41 38
67 72 73 75 76 81 82 82 83 83 84 86 89 91 94 96 96 95 94 94 95 95 94 92 92 91 91 90 89 91 89 82 77 69 60 51 45 41 40 40 40 40 41 43

GFSNW_prec_cthk_036.txt.gz
RH
45 45 47 43 45 46 44 47 43 37 37 38 42 50 48 46 35 30 30 28 30 32 34 36 33 34 34 36 33 34 39 43 47 39 33 31 29 30 29 34 30 47 47 37
46 48 47 44 48 47 45 44 43 39 35 40 44 49 47 46 36 34 33 32 32 35 41 43 40 36 37 39 34 33 35 41 50 41 34 31 29 31 31 31 36 38 44 31
50 50 47 45 50 48 45 42 47 45 37 33 41 45 45 48 38 33 33 34 35 36 43 46 50 48 45 42 39 32 33 39 38 41 31 30 25 27 28 27 41 36 36 26
51 50 47 46 50 48 47 42 42 37 41 38 38 43 44 48 38 33 31 33 35 35 42 48 50 49 46 41 40 36 33 36 37 35 33 26 22 21 26 27 27 30 25 29
52 51 47 46 48 48 48 43 42 35 34 33 35 41 43 40 36 33 30 29 34 34 39 44 50 45 42 37 39 37 36 40 34 34 36 33 28 24 24 25 25 29 28 28
55 54 45 46 46 43 47 43 41 33 37 35 33 37 37 35 34 31 30 28 28 30 36 41 40 40 39 35 35 36 34 38 37 37 37 31 28 23 25 23 23 25 30 24
63 55 44 46 45 41 42 42 46 38 38 32 31 28 31 34 30 29 31 29 30 33 38 40 43 43 42 41 41 35 36 36 35 35 33 28 18 22 24 24 23 25 27 29
57 54 45 45 41 40 42 47 55 43 42 30 28 29 32 35 34 34 33 33 31 34 36 45 47 51 46 46 47 43 38 37 42 37 38 25 19 24 28 28 24 28 29 32
63 50 45 42 38 38 40 47 47 44 42 34 25 31 29 34 37 38 40 40 36 36 40 42 49 50 43 44 46 47 44 41 41 48 35 31 20 22 24 25 34 26 28 33
57 49 43 41 34 37 46 58 60 52 41 38 35 34 31 30 35 42 42 42 41 40 44 50 49 45 42 47 46 53 55 52 46 52 44 33 22 25 27 35 29 28 28 32
57 49 47 37 32 43 48 70 69 60 48 44 43 40 41 38 39 41 42 45 46 46 47 50 51 49 47 45 42 49 50 54 54 52 52 41 25 30 33 30 28 29 34 34
62 55 42 34 35 42 47 65 62 57 52 54 50 46 44 42 38 37 44 45 44 42 47 48 49 51 49 46 45 43 45 40 42 40 37 28 28 29 30 32 34 35 37 39
66 55 41 40 46 75 85 78 66 55 51 53 51 49 45 43 43 46 45 43 40 40 41 44 44 43 45 47 47 42 39 36 38 36 29 31 33 33 36 38 39 41 43 49
63 48 46 46 56 69 78 70 62 53 51 55 56 54 53 52 48 46 43 41 42 41 41 44 46 41 40 43 39 40 36 36 38 40 37 37 36 36 37 38 41 45 51 57
68 62 50 48 54 59 61 57 50 45 42 48 53 51 51 51 51 49 48 47 48 49 51 52 49 43 43 45 46 42 37 39 44 44 36 38 37 39 41 43 47 52 57 64
77 73 70 64 59 57 53 51 49 43 39 37 51 50 53 52 54 54 53 50 49 48 46 46 46 43 45 53 53 37 39 42 44 43 45 47 48 50 51 53 57 63 71 75
63 62 61 60 58 54 50 46 46 41 37 35 44 45 45 46 45 45 45 45 44 46 49 50 51 51 53 57 55 45 49 52 54 55 54 53 54 56 58 64 71 79 83 86
65 60 57 55 54 52 52 50 46 42 38 36 43 44 43 45 47 47 47 47 47 49 52 52 53 57 60 61 57 59 59 59 57 56 57 58 60 64 73 79 82 85 89 99
73 68 65 63 58 55 58 55 52 49 45 45 47 47 51 53 54 55 55 56 58 59 62 63 65 67 68 66 63 60 60 62 62 62 65 71 77 81 85 88 92 95 97 95
77 75 76 76 75 73 71 70 66 64 62 60 61 61 61 59 62 62 62 64 66 66 65 67 68 68 66 65 66 70 72 72 75 79 82 85 89 92 93 94 95 94 94 91
83 82 82 82 80 77 74 75 73 72 71 70 69 66 63 61 61 62 63 64 63 65 64 67 66 66 72 77 76 77 79 82 86 88 90 90 91 91 92 91 91 87 82 78
88 87 88 88 85 83 81 82 78 76 74 72 70 68 66 64 64 70 75 75 77 77 74 78 77 77 84 86 87 87 87 86 85 87 88 87 85 83 82 81 79 79 78 74
77 77 78 76 80 83 81 79 75 74 71 70 67 69 70 74 81 86 89 90 89 87 89 90 87 87 89 90 89 87 85 83 81 79 79 81 81 80 80 80 76 71 67 63
90 88 85 81 83 81 76 74 73 71 71 72 73 77 81 87 93 98 98 96 95 93 91 88 90 91 90 88 86 85 80 78 78 78 79 79 79 76 71 67 63 58 55 52
95 92 93 92 89 87 82 80 80 82 87 93 96 97 97 98 98 98 98 97 94 91 89 91 92 93 89 89 86 83 83 81 80 79 78 75 72 66 60 54 48 43 41 40
98 96 95 92 92 94 94 94 93 92 95 98 98 98 97 96 95 94 95 94 91 91 93 92 92 92 92 93 90 86 84 84 81 77 71 66 58 50 44 38 38 38 36 36
89 92 92 95 94 94 93 92 92 92 91 88 89 89 89 90 91 88 85 83 83 86 84 86 90 89 89 89 87 86 86 83 77 68 58 47 41 40 38 35 34 36 38 40